View from above orbital plane
|
View from above satellite
|
Ground track
|
The orbit data is extracted from the following two-line orbital elements,
1 31598U 07023A 21060.55788095 .00000308 00000-0 45221-4 0 9993
2 31598 97.8854 245.9819 0001431 96.3207 263.8170 14.82155593742916
Epoch (UTC): | 01 March 2021 13:23:20 |
Eccentricity: | 0.0001431 |
inclination: | 97.8854° |
perigee height: | 621 km |
apogee height: | 623 km |
right ascension of ascending node: | 245.9819° |
argument of perigee: | 96.3207° |
revolutions per day: | 14.82155593 |
mean anomaly at epoch: | 263.8170° |
orbit number at epoch: | 74291 |
The dashed part of the orbit path shows where the satellite is in the earth's shadow,
|
|